{"data":{"norad_id":50813,"intl_designator":"2022-001L","name":"STARLINK-3349","alt_names":[],"object_type":"PAYLOAD","status":"ACTIVE","operator":null,"country":"US","launch_date":"2022-01-06","launch_site_code":"AFETR","launch_vehicle":null,"mission":null,"orbit_class":"UNKNOWN","rcs_meters":null,"size_class":null,"mass_kg":null,"dimensions":null,"purposes":["comms"],"wikipedia_slug":null,"has_3d_model":false,"image_url":null,"decayed_at":null,"tle_current":{"epoch":"2026-09-19T15:50:27.195072Z","epoch_age_seconds":117287,"freshness":"FRESH","line1":"1 50813U 22001L   26262.66003698  .00050285  00000+0  73082-3 0  9990","line2":"2 50813  53.1968 282.1392 0002560  16.0231 344.0862 15.55309460261053","mean_motion":15.5530946,"eccentricity":0.000256,"inclination_deg":53.1968,"raan_deg":282.1392,"arg_perigee_deg":16.0231,"mean_anomaly_deg":344.0862,"bstar":0.00073082,"rev_number":26105,"period_min":92.586076085463,"perigee_km":399.51769260555,"apogee_km":402.98874039639,"semimajor_km":6779.390216501,"source":"CELESTRAK","updated_at":"2026-09-20T09:00:39.576422Z"}}}